Regional Weather Roundup
Issued by NWS

Home | Current Version | Previous Version | Text Only | Print | Product List | Glossary Off
Versions: 1 2 3 4 5 6 7 8 9 10 11 12 13 14 15 16 17 18 19 20 21 22 23 24 25 26 27 28

000
ASUS45 KCYS 232010
RWRWY

WYOMING REGIONAL WEATHER ROUNDUP
NATIONAL WEATHER SERVICE CHEYENNE WY
200 PM MDT SAT JUL 23 2016

NOTE:  "FAIR" INDICATES FEW OR NO CLOUDS BELOW 12,000 FEET
WITH NO SIGNIFICANT WEATHER AND/OR OBSTRUCTIONS TO VISIBILITY.

WYZ001-232100-
YELLOWSTONE NATIONAL PARK

CITY           SKY/WX    TMP DP  RH WIND       PRES   REMARKS
LK YELLOWSTONE   N/A     69  28  21 W8        30.32F
W YELLOWSTONE  NOT AVBL

$$
WYZ002>013-054>058-071-098>099-232100-
NORTHERN WYOMING

CITY           SKY/WX    TMP DP  RH WIND       PRES   REMARKS
JACKSON        SUNNY     75  27  16 W7        30.23S
CODY           FAIR      81  39  22 N6        30.09S
GREYBULL       FAIR      87  32  14 N12       30.00F
WORLAND        FAIR      86  29  12 N5        30.02F
SHERIDAN       FAIR      86  41  20 N15       30.05F
BUFFALO        FAIR      80  40  23 VRB7      30.11F
GILLETTE       FAIR      83  40  21 W8        30.04F
HULETT         FAIR      81  39  22 N13G22    30.06F
NEWCASTLE      FAIR      86  32  14 NW9G20    30.02S

$$
WYZ014>020-022>026-101>103-232100-
CENTRAL WYOMING

CITY           SKY/WX    TMP DP  RH WIND       PRES   REMARKS
BIG PINEY      FAIR      80  23  12 NW9       30.25F
PINEDALE       FAIR      77  21  12 N16       30.27F
DUBOIS         FAIR      77  19  11 N24       30.21F
LANDER         FAIR      86  26  11 NW6       30.08F
RIVERTON       FAIR      84  24  11 VRB3      30.10F
CASPER         FAIR      87  37  17 N12G17    30.07F
DOUGLAS          N/A    N/A N/A N/A MISG      30.07F

$$
WYZ021-027>030-104>119-232100-
SOUTHERN WYOMING

CITY           SKY/WX    TMP DP  RH WIND       PRES   REMARKS
EVANSTON       FAIR      82  12   7 W16G26    30.29F
KEMMERER         N/A     79  19  11 W18G25    30.30S
FORT BRIDGER   FAIR      85  20   9 W18       30.30F
ROCK SPRINGS   FAIR      84  18   8 SW16G25   30.24F
DIXON          FAIR      87  43  21 SW7       30.25S
RAWLINS        FAIR      85  26  11 SW18G31   30.22F
SARATOGA       FAIR      84  41  21 SW17G32   30.26S
LARAMIE        FAIR      83  36  18 W24G33    30.23F
CHEYENNE       FAIR      93  37  14 W13       30.13F
TORRINGTON     FAIR      94  42  16 NW12      29.99F HX  90
PINE BLUFFS    FAIR      91  43  18 NW10G16   30.07S

$$




USA.gov is the U.S. government's official web portal to all federal, state and local government web resources and services.